Overview Statistics Trail Chart Weather Telemetry Raw packets
 

This is the latest recevied weather packets stored in our database for station/object KB1WCR. If no packets are shown the sender has not sent any weather packets the latest 10 day(s).

<< 10 11 12 13 14 15 16 >>
Time Temp. Humidity Pressure Rain* Wind** Luminosity Snow
1788357891 18.89° C 85% 1023.1 hPa 0 mm - 221 W/m² -
1788357590 19.44° C 87% 1022.8 hPa 0 mm - 227 W/m² -
1788357286 19.44° C 88% 1023 hPa 0 mm - 207 W/m² -
1788356985 18.89° C 89% 1022.8 hPa 0 mm - 222 W/m² -
1788356681 18.89° C 89% 1022.8 hPa 0 mm - 239 W/m² -
1788356376 18.89° C 89% 1022.9 hPa 0 mm - 236 W/m² -
1788356071 18.89° C 90% 1023 hPa 0 mm - 320 W/m² -
1788355766 18.89° C 91% 1023 hPa 0 mm - 299 W/m² -
1788355461 18.89° C 91% 1023 hPa 0 mm - 269 W/m² -
1788355156 18.89° C 90% 1023 hPa 0 mm - 258 W/m² -
1788354853 18.89° C 91% 1023 hPa 0 mm - 333 W/m² -
1788354552 18.33° C 92% 1023 hPa 0 mm - 368 W/m² -
1788354248 17.78° C 94% 1022.9 hPa 0 mm - 257 W/m² -
1788353943 17.78° C 95% 1022.9 hPa 0 mm - 221 W/m² -
1788353639 17.22° C 96% 1023 hPa 0 mm - 151 W/m² -
1788353335 17.22° C 97% 1023 hPa 0 mm - 113 W/m² -
1788353030 17.22° C 98% 1023 hPa 0 mm - 79 W/m² -
1788352725 17.22° C 98% 1023.1 hPa 0 mm - 103 W/m² -
1788352422 16.67° C 99% 1022.9 hPa 0 mm - 137 W/m² -
1788352120 16.67° C 99% 1022.9 hPa 0 mm - 163 W/m² -
1788351816 16.67° C 99% 1022.8 hPa 0 mm - 95 W/m² -
1788351516 16.67° C 99% 1023.1 hPa 0 mm - 112 W/m² -
1788351211 16.67° C 99% 1023.1 hPa 0 mm - 119 W/m² -
1788350906 16.67° C 99% 1023.3 hPa 0 mm - 85 W/m² -
1788350603 16.67° C 99% 1023 hPa 0 mm - 79 W/m² -

* Rain latest hour (hover to see other rain measurements)
** Current wind speed in m/s (hover to see current wind gust speed)